Probability
0 0 0 0 0 0 0 0 0 0 0 1 1 1 2 2 1 0 1 7 14 17 19 21 22 26 31 33 34 35 35 31 27 27 24 21 19 18 16 12 9 11 12 11 9 8 7 8 9
0 0 0 0 0 0 0 0 0 0 0 0 1 1 2 3 3 1 2 8 17 21 21 20 22 25 28 30 30 32 32 30 27 26 24 21 19 18 17 14 10 11 14 14 12 11 10 10 11
0 0 0 0 0 0 0 0 0 0 0 1 1 3 5 5 4 3 4 12 21 26 25 23 23 23 24 26 26 28 30 30 27 26 26 23 19 17 18 16 13 12 15 17 16 15 14 13 13
0 0 0 0 0 0 0 0 0 0 1 2 3 5 6 6 5 5 9 18 25 29 28 27 26 24 24 26 27 29 31 31 28 27 27 26 22 19 19 17 15 14 16 19 19 17 16 15 13
0 0 0 0 0 0 0 0 0 0 1 3 3 4 6 7 7 9 14 23 30 33 31 31 30 29 29 30 31 32 33 33 32 31 31 30 27 23 21 18 17 16 16 18 19 18 17 15 14
0 0 0 0 0 0 0 0 0 0 0 1 2 3 5 8 11 15 19 28 36 36 33 31 31 32 32 32 33 35 36 34 35 36 35 33 29 24 22 20 19 17 15 16 17 17 16 15 14
0 0 0 0 0 0 0 0 0 0 0 1 2 4 6 9 14 18 22 30 36 36 32 31 29 28 28 30 31 33 35 34 34 35 34 31 26 22 20 20 18 15 13 13 14 15 15 14 14
0 0 0 0 0 0 0 0 0 0 1 2 3 5 6 9 15 19 22 25 28 29 29 29 28 25 23 25 27 30 32 31 29 28 26 24 22 19 17 17 16 14 12 12 13 13 13 13 13
0 0 0 0 0 0 0 0 0 1 2 2 2 4 7 12 16 19 20 19 19 20 21 24 24 22 20 20 22 26 29 28 25 23 20 18 17 16 15 14 13 12 12 12 12 11 11 11 12
0 0 0 0 0 0 0 0 0 1 2 2 3 6 10 14 17 18 17 15 13 12 14 15 16 16 16 15 17 21 24 25 24 22 20 19 17 15 15 15 13 12 12 11 11 11 10 10 10
0 0 0 0 0 0 0 0 2 3 2 3 6 10 14 15 15 14 13 11 9 8 8 8 8 10 11 12 13 15 19 21 22 22 21 20 19 16 15 15 14 13 13 13 13 12 9 7 7
0 0 0 0 0 0 0 1 4 6 5 5 10 14 16 15 12 11 11 8 6 5 4 4 5 6 7 9 10 11 13 16 19 20 19 18 18 15 13 13 11 11 11 12 11 9 6 5 5
0 0 0 0 1 1 1 1 4 7 8 8 12 15 16 14 11 10 9 7 6 4 2 2 3 4 4 6 7 8 9 11 16 18 18 18 16 13 10 9 7 6 6 7 6 5 4 3 3
0 0 0 0 1 1 1 1 2 5 8 10 11 12 13 11 9 8 8 8 7 5 3 2 2 4 4 5 5 6 6 8 11 15 17 19 18 14 10 7 5 3 3 3 3 3 3 3 3
0 0 0 0 1 1 0 0 1 3 7 9 9 8 8 7 7 7 8 9 9 8 5 3 3 4 5 5 4 4 5 6 9 13 16 19 20 17 11 7 5 4 4 3 3 3 3 2 3
0 0 0 0 0 0 0 0 1 3 5 7 6 6 5 5 6 7 7 8 9 10 7 5 4 5 6 5 4 3 4 6 9 14 17 18 19 16 12 7 6 6 5 4 4 4 4 3 3
0 0 0 0 0 0 0 0 1 3 4 4 4 5 5 6 7 7 6 6 7 8 7 6 6 6 5 4 3 3 3 5 10 15 18 19 18 15 11 9 7 7 6 5 5 6 5 3 3
0 0 0 0 0 0 0 0 1 2 3 3 3 4 4 5 6 7 5 3 4 5 6 6 7 7 6 4 4 4 4 5 8 12 16 18 17 14 11 10 8 8 8 7 7 7 6 4 2
0 0 0 0 0 0 0 0 1 1 2 2 2 2 3 3 4 5 4 2 2 4 6 7 7 7 6 5 5 5 5 6 6 9 12 15 14 12 10 8 8 8 8 8 8 9 8 5 2
0 0 0 0 0 0 0 0 1 1 1 1 1 2 3 3 3 3 3 1 1 4 7 8 8 8 6 5 5 6 6 6 7 8 10 10 10 8 6 4 5 7 8 8 9 10 9 6 3
0 0 0 0 0 0 0 0 0 0 0 1 2 4 4 4 3 3 3 1 1 3 6 7 8 8 6 5 5 7 7 7 7 9 9 8 6 5 4 2 3 6 8 8 8 10 10 7 4
0 0 0 0 0 0 0 0 0 0 1 2 3 5 5 4 3 3 3 2 2 2 3 5 6 6 6 6 6 7 7 7 7 9 8 5 3 4 4 2 1 4 7 8 8 9 10 8 6
0 0 0 0 0 0 0 0 0 0 1 2 3 4 5 5 4 4 4 3 1 1 3 3 3 4 6 6 6 7 7 6 6 6 4 2 1 2 2 1 1 3 6 6 7 8 9 9 8
0 0 0 0 0 0 0 0 0 0 1 1 2 2 4 5 5 5 4 3 1 1 2 2 1 2 3 4 4 5 6 6 5 4 3 1 0 0 0 0 0 2 4 5 6 8 9 9 9
0 0 0 0 0 0 0 0 0 0 0 0 1 1 1 3 5 4 3 3 2 1 0 0 0 0 1 1 1 2 3 5 5 4 3 1 0 0 0 0 0 1 3 4 6 8 9 10 10
0 0 0 0 0 0 0 0 0 0 0 0 0 0 0 1 3 2 1 2 1 0 0 1 1 0 0 0 0 0 1 3 4 4 3 1 1 1 0 0 0 0 1 3 4 6 8 9 10
0 0 0 0 0 0 0 0 0 0 0 0 1 1 0 1 1 1 0 1 0 0 0 1 1 0 0 0 0 0 0 1 1 2 2 2 2 2 1 0 0 0 1 2 3 5 6 8 8
0 0 0 0 0 0 0 0 0 0 0 1 2 2 1 0 1 0 0 1 0 0 0 1 1 0 0 0 0 0 0 0 0 1 1 2 2 2 1 0 0 0 0 1 2 4 5 6 6
0 0 0 0 0 0 0 0 0 0 0 1 2 2 1 0 1 0 0 0 0 0 0 0 0 0 0 0 0 0 0 0 1 1 1 1 1 1 0 0 0 0 0 0 1 3 4 4 4
0 0 0 0 0 0 0 0 0 0 0 0 1 1 0 0 1 0 0 0 0 0 0 0 0 0 0 0 0 0 0 0 1 2 2 1 0 0 0 0 0 0 0 0 0 1 2 2 2
Wind_Speed
1 2 2 2 5 5 2 4 2 3 2 1 1 3 4 3 2 2 0 6 8 9 9 11 13 12 12 12 12 13 13 13 13 13 13 12 13 13 13 13 12 12 12 11 11 11 10 9 9
2 2 3 4 5 2 4 3 2 2 2 1 2 2 3 2 2 2 2 4 8 9 8 9 13 12 12 11 11 12 12 13 13 13 12 12 12 12 12 12 12 11 11 11 11 10 10 9 8
1 2 4 5 3 3 3 3 2 3 2 2 2 3 3 2 2 0 1 7 8 8 7 9 13 12 12 12 11 11 11 11 12 12 11 11 11 10 11 11 11 11 11 10 10 10 9 9 8
2 3 5 5 0 3 4 4 3 3 3 4 3 4 3 3 1 1 5 8 9 7 6 8 12 12 11 11 11 10 10 10 10 11 10 10 10 9 10 11 11 10 10 10 10 9 8 8 8
3 4 5 2 2 4 3 3 1 1 2 3 4 3 2 3 4 6 7 8 8 6 5 6 10 11 10 10 10 10 9 9 8 9 9 9 8 8 8 10 10 10 10 9 9 9 8 7 7
5 5 4 1 3 4 3 2 1 1 1 2 3 3 1 2 4 5 7 6 7 6 5 5 9 10 10 10 9 9 8 8 7 8 8 8 8 8 8 8 9 10 9 9 9 8 8 7 6
4 4 2 1 2 3 2 1 1 1 2 2 2 2 0 2 2 5 6 6 6 5 5 3 4 6 7 7 8 8 7 7 7 6 6 7 7 7 8 8 8 9 9 9 9 8 8 7 7
4 5 1 1 2 3 3 2 1 1 0 1 2 3 2 2 3 5 6 5 5 4 3 3 2 3 3 3 6 7 7 6 6 6 6 6 6 6 7 7 7 8 9 9 9 8 8 7 7
4 5 1 3 3 3 2 2 2 2 3 2 2 1 2 6 6 6 5 4 4 3 2 2 2 2 2 2 4 5 6 6 5 4 5 4 2 2 3 5 7 8 8 8 8 8 7 6 6
4 3 5 4 3 2 1 1 0 2 3 2 3 3 5 7 7 6 5 5 4 3 2 1 2 2 2 2 2 1 2 2 2 1 2 1 1 1 2 4 7 7 8 7 7 7 6 4 2
3 4 3 2 2 2 1 1 2 3 2 1 1 2 5 6 5 4 4 4 4 3 3 2 2 2 2 1 1 1 1 1 1 2 1 1 1 0 1 1 2 2 3 2 2 2 1 2 1
2 3 3 2 0 2 2 2 3 3 0 1 2 4 5 4 3 4 4 4 3 3 3 2 2 2 2 1 1 1 1 1 1 2 2 2 1 1 1 1 1 1 1 1 1 1 2 2 2
2 2 1 1 1 3 5 4 3 2 2 4 6 6 4 3 2 1 1 2 1 2 2 2 2 3 2 2 1 1 2 2 2 2 2 3 2 2 2 1 0 1 1 1 2 2 2 2 3
1 1 2 2 2 2 6 3 3 2 3 5 5 4 3 3 2 1 1 1 1 2 2 1 2 2 2 2 1 1 1 1 1 2 2 3 2 2 1 1 1 1 1 1 2 2 2 2 2
1 2 4 3 1 1 5 5 3 2 3 4 4 3 3 1 2 1 1 1 2 2 2 1 1 2 2 2 2 1 1 1 1 2 2 2 2 2 2 1 1 1 1 2 1 1 1 2 2
2 3 2 3 2 2 6 1 3 2 4 4 3 3 2 2 2 1 0 1 1 2 2 1 1 1 2 2 2 1 1 1 1 1 1 2 2 3 3 2 2 1 1 2 2 1 2 2 2
3 1 1 3 3 2 4 1 1 2 4 3 2 2 2 2 2 2 1 1 2 2 2 2 2 2 2 2 1 0 0 1 1 1 1 2 2 3 2 2 2 2 2 2 2 2 2 2 2
2 1 1 2 1 5 4 1 1 2 3 2 2 2 2 3 3 3 3 2 1 1 2 2 2 2 1 1 1 1 1 1 1 1 2 2 2 2 2 2 2 2 2 1 2 2 2 2 2
3 3 2 2 1 4 3 2 1 2 2 2 2 2 3 4 3 3 3 2 1 0 1 2 2 1 1 1 1 1 1 1 2 1 2 2 2 3 2 2 2 2 2 3 3 2 2 2 1
3 3 1 0 1 4 3 2 2 2 1 1 2 3 3 4 4 5 4 4 2 1 0 0 1 1 2 2 2 2 1 1 2 2 1 2 3 3 3 3 2 2 2 2 2 2 2 1 1
2 4 4 3 3 3 3 3 3 2 3 3 3 2 2 3 4 5 5 4 3 1 1 1 1 1 2 2 1 0 0 0 1 1 1 2 2 3 3 3 2 2 3 3 3 3 4 2 1
2 3 5 5 4 0 2 0 3 3 4 4 4 4 4 4 4 4 4 4 3 2 2 1 2 2 2 2 2 2 2 2 2 2 2 2 2 2 2 2 3 3 2 3 3 3 3 4 3
2 2 4 4 4 3 3 2 5 2 3 5 5 4 5 5 4 4 4 4 3 3 2 2 2 2 2 2 2 2 1 2 1 1 1 1 1 2 2 2 2 2 2 2 2 2 3 3 3
4 6 6 5 5 2 2 2 4 2 3 4 5 5 5 4 4 4 4 4 4 3 3 1 1 2 1 1 1 2 2 2 1 1 1 1 1 1 1 1 1 2 2 2 3 3 3 3 3
5 6 4 5 4 2 1 1 5 4 3 3 4 5 4 3 3 3 4 5 4 4 3 2 1 1 1 0 0 1 2 2 2 2 2 2 1 2 2 2 2 2 2 3 3 3 3 4 4
2 6 6 3 3 3 2 2 5 3 2 2 2 3 4 4 4 4 4 4 4 3 3 2 1 2 1 1 1 1 1 1 1 2 2 2 2 3 2 2 2 2 2 2 2 2 3 3 3
4 2 4 6 2 0 3 4 5 2 4 4 4 5 5 5 4 4 4 4 4 3 3 2 2 2 2 1 1 1 1 1 1 2 1 2 2 2 2 2 2 2 2 2 2 2 3 3 3
4 6 5 5 3 1 3 3 3 4 4 4 4 4 5 5 5 5 4 4 4 3 3 2 2 2 2 2 1 1 1 1 1 1 1 2 2 2 1 1 1 2 2 2 1 2 2 3 2
3 4 5 4 4 4 2 6 3 4 4 3 4 4 4 4 4 4 4 4 4 4 3 2 2 2 2 2 2 2 2 2 2 1 1 2 1 1 1 1 1 1 1 1 1 2 2 2 2
2 3 5 4 2 3 3 6 3 2 2 2 3 3 3 3 3 3 3 4 4 4 4 3 3 2 2 2 2 2 2 2 2 2 2 1 1 1 1 1 1 1 1 1 2 2 2 3 3
Wind_Direction
154 107 97 68 55 48 312 279 274 318 327 312 76 113 128 131 158 207 306 130 127 137 146 150 149 147 144 141 138 135 134 134 134 134 136 139 143 148 152 154 157 159 160 160 159 157 157 154 154
132 123 64 59 77 48 295 278 291 283 262 333 46 77 89 63 41 89 96 131 130 135 142 150 150 149 146 143 141 140 140 139 139 140 142 145 148 152 156 160 163 165 165 164 164 163 162 159 159
148 94 83 71 93 176 258 288 278 308 330 26 53 47 72 36 22 113 144 131 125 132 138 152 151 151 150 148 145 145 145 146 146 146 149 151 153 157 162 166 170 171 171 170 170 169 167 165 165
103 57 58 70 109 234 238 276 304 321 352 32 80 63 57 27 8 80 116 125 123 126 134 152 152 155 153 150 148 148 148 150 152 153 154 157 161 165 170 172 175 175 176 177 176 175 174 175 174
66 78 64 42 273 269 261 276 284 334 347 36 74 90 48 16 57 97 120 128 126 127 132 152 154 157 156 153 151 151 153 153 155 158 162 166 169 172 174 180 180 181 183 183 183 182 184 187 187
56 68 77 328 287 284 285 316 14 44 29 45 82 100 38 37 78 111 119 119 123 128 131 147 157 158 159 158 156 155 156 156 158 160 166 170 173 178 182 188 189 189 191 193 193 193 192 195 199
102 92 128 224 281 303 300 331 51 66 50 29 81 102 339 40 91 116 115 112 112 121 125 132 151 157 158 161 159 155 154 156 160 164 171 179 186 190 192 192 199 200 199 200 199 203 203 203 206
123 103 103 254 243 275 298 346 47 73 74 23 85 130 216 183 123 105 99 97 102 105 113 119 118 124 143 163 169 163 163 165 166 170 175 180 188 198 204 203 207 208 207 205 203 203 206 207 209
92 78 189 226 210 256 303 12 3 37 83 49 42 166 186 132 127 113 102 96 103 117 109 119 121 125 138 162 176 168 170 170 171 178 186 182 189 210 217 220 219 216 212 209 206 202 203 207 211
93 129 227 220 200 208 309 38 358 51 48 32 24 36 97 126 140 142 144 151 154 159 163 144 156 146 148 171 151 141 162 162 161 157 186 173 144 234 237 240 233 227 219 215 215 211 201 197 202
149 189 233 253 217 174 101 36 24 94 42 278 215 140 128 132 143 149 156 162 168 168 170 182 182 166 155 154 147 151 155 155 159 165 175 157 147 198 270 265 261 256 234 220 218 205 182 163 182
171 244 232 267 178 114 121 106 60 64 289 336 115 130 127 134 154 169 172 172 163 161 181 191 185 175 175 165 166 170 175 177 184 196 191 173 182 197 201 219 242 230 215 186 175 179 182 183 201
192 267 271 250 70 117 100 91 98 48 43 68 90 99 112 124 142 168 137 128 144 169 199 213 191 185 183 173 190 180 190 200 203 200 202 190 191 207 209 213 221 236 214 203 196 195 193 197 212
218 286 342 352 88 100 95 60 59 349 59 77 87 98 117 130 136 124 99 151 211 219 225 217 192 195 179 182 189 188 199 206 208 208 211 198 191 190 195 203 202 217 211 201 202 209 201 204 207
47 36 9 351 30 108 96 40 21 6 72 79 79 82 81 84 80 92 180 215 235 241 241 210 197 174 177 191 192 183 199 186 211 226 215 200 189 183 180 194 214 213 191 182 179 207 190 206 207
52 56 15 315 11 57 97 69 341 37 81 73 66 65 52 31 42 30 237 225 222 223 223 211 220 175 197 204 191 171 202 203 222 228 208 200 188 177 176 188 217 208 169 163 172 197 208 216 214
35 62 262 317 1 66 97 146 335 57 83 72 50 39 15 4 1 338 334 260 213 210 201 183 201 191 201 210 197 199 230 235 235 222 217 211 195 187 180 196 215 188 175 181 189 182 201 220 224
218 206 236 276 340 82 92 103 6 46 86 66 33 10 349 333 321 320 330 314 248 201 175 182 197 197 180 168 83 48 302 270 255 229 220 213 203 195 184 194 206 180 174 190 190 193 198 210 223
165 163 202 258 202 95 104 97 31 37 45 13 1 347 342 330 330 339 344 338 334 60 138 174 171 188 147 130 161 188 244 262 264 247 233 222 211 203 192 198 188 182 187 203 201 195 204 217 186
151 143 151 354 81 113 108 62 30 52 10 349 346 338 330 326 341 341 343 346 351 359 313 241 198 194 182 193 192 194 206 238 246 255 249 228 216 211 206 198 192 187 188 204 206 194 192 220 180
170 173 180 166 67 74 93 11 358 356 2 3 358 342 334 332 328 328 327 331 333 328 257 256 234 220 212 197 172 342 51 334 276 267 258 250 231 224 210 209 200 199 191 205 211 199 186 201 207
252 218 161 150 122 164 106 228 299 323 343 346 334 333 326 323 324 322 326 329 323 309 305 284 269 247 226 201 186 190 218 234 248 251 256 261 238 234 220 211 206 213 209 211 212 197 194 191 207
209 95 110 119 120 78 30 116 289 333 327 312 311 314 312 314 322 321 321 318 325 324 322 302 279 270 250 221 197 185 246 247 253 245 256 275 271 251 234 216 202 211 213 217 211 194 192 196 202
111 74 63 56 73 60 306 143 278 271 264 293 304 311 313 316 324 325 326 332 338 343 343 314 285 276 267 236 191 183 224 230 218 243 266 291 292 279 257 233 218 224 220 218 219 210 202 206 203
71 82 39 10 19 269 286 140 250 261 256 263 288 303 312 323 331 331 333 336 334 342 348 346 336 319 311 307 181 186 213 206 208 220 229 245 271 273 267 256 241 242 235 228 218 207 210 209 201
115 124 145 186 216 275 330 243 258 280 304 317 316 320 336 342 335 327 323 322 325 335 345 357 356 337 333 341 321 273 222 213 225 229 229 232 243 255 260 252 248 247 237 234 218 212 219 210 206
110 98 145 125 115 1 287 287 306 342 344 350 357 353 339 331 328 326 329 330 332 341 342 339 349 340 333 322 328 329 276 243 262 271 258 258 262 262 262 256 254 250 235 228 211 218 224 210 211
106 134 93 100 126 275 293 276 267 290 303 322 330 325 317 325 329 328 333 336 336 336 338 349 358 348 350 348 340 349 338 329 307 302 292 279 270 259 254 263 263 258 239 217 207 222 225 216 222
55 69 88 100 136 152 263 272 236 230 252 268 280 291 296 308 317 329 338 339 339 344 352 1 354 359 356 350 351 360 348 345 345 327 301 283 274 268 262 267 275 250 221 207 201 222 215 216 228
114 133 137 136 196 163 182 264 280 242 256 252 275 294 306 313 321 338 345 350 353 352 350 352 356 358 350 349 1 4 352 1 2 339 320 311 306 293 270 273 274 261 231 210 204 220 216 210 217